QPF
0.00 0.01 0.01 0.01 0.00 0.00 0.01 0.01 0.02 0.02 0.01 0.01 0.03 0.02 0.08 0.07 0.06 0.06 0.05 0.04 0.03 0.02 0.03 0.03 0.03 0.02 0.02 0.03 0.04 0.05 0.03 0.04 0.05 0.05 0.05 0.05 0.05 0.03 0.03 0.03 0.04 0.05 0.06
0.01 0.01 0.01 0.00 0.00 0.00 0.00 0.01 0.01 0.01 0.01 0.01 0.03 0.04 0.06 0.05 0.06 0.07 0.08 0.06 0.04 0.02 0.03 0.03 0.02 0.02 0.02 0.02 0.02 0.03 0.02 0.02 0.04 0.04 0.03 0.03 0.03 0.03 0.03 0.03 0.03 0.04 0.05
0.01 0.01 0.01 0.01 0.01 0.01 0.01 0.01 0.00 0.00 0.01 0.01 0.02 0.03 0.05 0.03 0.04 0.05 0.08 0.05 0.04 0.04 0.03 0.03 0.02 0.03 0.02 0.02 0.02 0.02 0.02 0.02 0.04 0.04 0.04 0.03 0.02 0.01 0.02 0.02 0.03 0.04 0.05
0.01 0.02 0.03 0.02 0.01 0.01 0.01 0.01 0.00 0.00 0.01 0.01 0.01 0.01 0.02 0.02 0.03 0.04 0.06 0.05 0.03 0.03 0.04 0.03 0.03 0.03 0.03 0.03 0.03 0.03 0.04 0.03 0.03 0.04 0.03 0.03 0.03 0.03 0.02 0.02 0.03 0.05 0.07
0.01 0.02 0.03 0.02 0.01 0.00 0.00 0.00 0.01 0.01 0.00 0.01 0.01 0.01 0.01 0.02 0.03 0.04 0.04 0.05 0.06 0.07 0.04 0.04 0.04 0.04 0.03 0.03 0.03 0.04 0.06 0.05 0.04 0.04 0.04 0.05 0.04 0.04 0.03 0.03 0.03 0.05 0.05
0.02 0.01 0.01 0.01 0.01 0.00 0.00 0.00 0.00 0.00 0.00 0.01 0.01 0.02 0.02 0.02 0.02 0.03 0.04 0.05 0.06 0.06 0.06 0.05 0.06 0.05 0.04 0.05 0.04 0.04 0.05 0.07 0.08 0.08 0.07 0.07 0.07 0.05 0.03 0.02 0.02 0.03 0.03
0.03 0.02 0.02 0.01 0.01 0.01 0.01 0.00 0.01 0.01 0.01 0.01 0.02 0.02 0.03 0.02 0.03 0.03 0.04 0.05 0.06 0.07 0.06 0.07 0.10 0.12 0.10 0.06 0.04 0.04 0.03 0.04 0.06 0.07 0.08 0.08 0.07 0.06 0.05 0.05 0.05 0.04 0.03
0.02 0.01 0.02 0.03 0.02 0.02 0.02 0.02 0.02 0.02 0.03 0.03 0.02 0.03 0.03 0.03 0.03 0.02 0.03 0.04 0.05 0.06 0.09 0.10 0.12 0.15 0.12 0.08 0.05 0.05 0.04 0.04 0.04 0.06 0.07 0.07 0.06 0.08 0.07 0.07 0.07 0.06 0.04
0.02 0.02 0.03 0.03 0.03 0.03 0.03 0.04 0.04 0.04 0.04 0.04 0.04 0.05 0.05 0.03 0.03 0.02 0.02 0.03 0.04 0.05 0.08 0.13 0.11 0.11 0.11 0.08 0.07 0.08 0.08 0.07 0.07 0.09 0.11 0.09 0.08 0.08 0.08 0.10 0.13 0.10 0.06
0.03 0.02 0.02 0.03 0.03 0.02 0.02 0.04 0.05 0.06 0.06 0.06 0.04 0.04 0.03 0.03 0.04 0.05 0.05 0.04 0.03 0.03 0.07 0.18 0.15 0.11 0.11 0.10 0.10 0.11 0.12 0.11 0.08 0.07 0.09 0.09 0.09 0.09 0.08 0.09 0.10 0.09 0.07
0.01 0.02 0.02 0.02 0.02 0.02 0.02 0.03 0.03 0.04 0.04 0.03 0.02 0.01 0.01 0.01 0.01 0.03 0.04 0.04 0.04 0.04 0.05 0.09 0.11 0.08 0.09 0.12 0.14 0.12 0.11 0.11 0.09 0.07 0.07 0.08 0.10 0.11 0.10 0.10 0.11 0.10 0.09
0.01 0.04 0.05 0.02 0.02 0.01 0.01 0.01 0.01 0.01 0.01 0.01 0.01 0.01 0.01 0.01 0.01 0.02 0.01 0.01 0.02 0.03 0.03 0.03 0.04 0.04 0.05 0.07 0.12 0.12 0.10 0.10 0.10 0.09 0.08 0.07 0.08 0.09 0.09 0.10 0.11 0.12 0.13
0.02 0.03 0.05 0.02 0.02 0.01 0.01 0.01 0.00 0.01 0.01 0.01 0.00 0.01 0.01 0.01 0.02 0.02 0.02 0.02 0.01 0.02 0.02 0.02 0.02 0.02 0.03 0.03 0.04 0.05 0.06 0.07 0.07 0.07 0.06 0.05 0.05 0.04 0.05 0.06 0.06 0.06 0.06
0.02 0.02 0.02 0.02 0.01 0.01 0.01 0.01 0.01 0.01 0.01 0.01 0.01 0.01 0.01 0.01 0.01 0.01 0.02 0.02 0.02 0.01 0.02 0.02 0.01 0.01 0.02 0.03 0.04 0.03 0.03 0.03 0.03 0.03 0.03 0.04 0.04 0.04 0.05 0.04 0.03 0.03 0.04
0.04 0.02 0.02 0.01 0.01 0.01 0.01 0.01 0.01 0.01 0.01 0.01 0.02 0.02 0.02 0.04 0.04 0.03 0.03 0.03 0.03 0.03 0.03 0.02 0.02 0.03 0.05 0.04 0.04 0.05 0.03 0.02 0.02 0.03 0.03 0.04 0.05 0.05 0.04 0.03 0.02 0.03 0.03
0.04 0.02 0.01 0.01 0.01 0.01 0.01 0.01 0.02 0.02 0.02 0.03 0.05 0.05 0.06 0.07 0.05 0.05 0.05 0.06 0.06 0.06 0.08 0.07 0.04 0.04 0.03 0.03 0.03 0.04 0.05 0.03 0.03 0.03 0.05 0.06 0.06 0.05 0.04 0.03 0.03 0.03 0.03
0.02 0.01 0.01 0.01 0.01 0.01 0.01 0.01 0.02 0.03 0.03 0.04 0.04 0.03 0.03 0.03 0.04 0.05 0.05 0.05 0.06 0.07 0.06 0.05 0.06 0.05 0.04 0.03 0.03 0.04 0.05 0.06 0.06 0.06 0.06 0.05 0.04 0.05 0.04 0.03 0.03 0.03 0.03
0.01 0.01 0.01 0.01 0.01 0.01 0.01 0.01 0.02 0.02 0.02 0.02 0.02 0.02 0.02 0.03 0.04 0.04 0.03 0.04 0.04 0.04 0.04 0.06 0.08 0.07 0.06 0.05 0.04 0.06 0.08 0.09 0.08 0.08 0.08 0.06 0.05 0.05 0.04 0.04 0.04 0.04 0.02
0.01 0.02 0.02 0.03 0.03 0.02 0.01 0.01 0.02 0.02 0.02 0.01 0.02 0.02 0.03 0.03 0.03 0.03 0.02 0.02 0.03 0.04 0.06 0.07 0.06 0.05 0.04 0.05 0.06 0.09 0.09 0.09 0.08 0.08 0.09 0.07 0.06 0.06 0.05 0.04 0.05 0.05 0.03
0.01 0.04 0.05 0.03 0.04 0.04 0.05 0.03 0.02 0.01 0.01 0.01 0.02 0.02 0.02 0.02 0.03 0.03 0.03 0.04 0.04 0.05 0.06 0.07 0.07 0.07 0.07 0.07 0.09 0.10 0.08 0.07 0.07 0.07 0.07 0.07 0.06 0.05 0.05 0.04 0.03 0.03 0.03
0.02 0.02 0.02 0.02 0.02 0.03 0.04 0.04 0.02 0.02 0.02 0.03 0.03 0.04 0.04 0.04 0.05 0.06 0.07 0.07 0.07 0.08 0.08 0.08 0.10 0.12 0.13 0.14 0.14 0.13 0.11 0.11 0.11 0.12 0.10 0.09 0.07 0.06 0.05 0.04 0.03 0.02 0.03
0.02 0.02 0.02 0.02 0.02 0.02 0.02 0.03 0.03 0.03 0.03 0.03 0.04 0.05 0.07 0.06 0.06 0.08 0.08 0.10 0.11 0.11 0.11 0.12 0.11 0.12 0.13 0.13 0.14 0.16 0.16 0.16 0.15 0.12 0.11 0.10 0.08 0.06 0.05 0.04 0.03 0.03 0.03
0.03 0.03 0.03 0.03 0.03 0.03 0.03 0.03 0.03 0.03 0.03 0.04 0.05 0.06 0.09 0.09 0.08 0.09 0.10 0.10 0.10 0.10 0.13 0.14 0.13 0.12 0.12 0.10 0.10 0.10 0.12 0.14 0.12 0.10 0.08 0.07 0.06 0.05 0.05 0.04 0.04 0.04 0.04
0.06 0.05 0.04 0.03 0.03 0.03 0.03 0.02 0.03 0.04 0.03 0.03 0.03 0.05 0.08 0.11 0.10 0.12 0.12 0.11 0.10 0.10 0.11 0.12 0.10 0.08 0.08 0.08 0.05 0.05 0.05 0.06 0.06 0.06 0.07 0.08 0.08 0.06 0.05 0.04 0.04 0.03 0.03
0.09 0.06 0.05 0.03 0.03 0.03 0.04 0.04 0.05 0.05 0.03 0.03 0.03 0.04 0.07 0.11 0.13 0.14 0.15 0.16 0.14 0.10 0.07 0.06 0.05 0.04 0.04 0.05 0.04 0.04 0.04 0.04 0.04 0.05 0.06 0.06 0.06 0.06 0.06 0.05 0.04 0.04 0.03
0.08 0.08 0.06 0.05 0.04 0.04 0.05 0.06 0.07 0.06 0.05 0.04 0.04 0.06 0.08 0.09 0.11 0.10 0.10 0.10 0.08 0.05 0.03 0.03 0.03 0.04 0.04 0.04 0.04 0.05 0.05 0.06 0.07 0.06 0.06 0.07 0.07 0.07 0.06 0.06 0.05 0.05 0.05
MSLP
1005.20 1005.65 1006.14 1006.63 1007.14 1007.66 1008.23 1008.85 1009.53 1010.25 1011.00 1011.74 1012.41 1012.98 1013.42 1013.72 1013.91 1014.01 1014.07 1014.13 1014.24 1014.42 1014.67 1014.98 1015.33 1015.68 1016.01 1016.30 1016.53 1016.71 1016.85 1016.94 1017.01 1017.06 1017.06 1017.02 1016.92 1016.74 1016.50 1016.21 1015.89 1015.58 1015.32
1004.50 1005.01 1005.54 1006.05 1006.55 1007.05 1007.56 1008.13 1008.78 1009.50 1010.28 1011.07 1011.82 1012.48 1013.01 1013.39 1013.61 1013.73 1013.78 1013.83 1013.91 1014.07 1014.31 1014.63 1014.99 1015.36 1015.71 1016.02 1016.27 1016.47 1016.63 1016.76 1016.88 1016.98 1017.06 1017.09 1017.05 1016.93 1016.71 1016.40 1016.04 1015.65 1015.29
1003.52 1004.08 1004.67 1005.24 1005.77 1006.27 1006.76 1007.31 1007.93 1008.65 1009.45 1010.29 1011.11 1011.86 1012.47 1012.93 1013.22 1013.38 1013.45 1013.51 1013.60 1013.75 1013.99 1014.31 1014.67 1015.05 1015.41 1015.72 1015.98 1016.19 1016.37 1016.54 1016.71 1016.87 1017.03 1017.15 1017.19 1017.14 1016.98 1016.70 1016.32 1015.89 1015.45
1002.30 1002.91 1003.57 1004.21 1004.80 1005.33 1005.85 1006.39 1007.01 1007.73 1008.55 1009.42 1010.30 1011.12 1011.82 1012.35 1012.71 1012.93 1013.06 1013.15 1013.26 1013.42 1013.67 1013.99 1014.36 1014.74 1015.09 1015.41 1015.67 1015.89 1016.09 1016.29 1016.50 1016.72 1016.95 1017.15 1017.29 1017.33 1017.23 1017.01 1016.66 1016.22 1015.74
1000.99 1001.63 1002.36 1003.08 1003.75 1004.34 1004.89 1005.46 1006.08 1006.81 1007.63 1008.52 1009.44 1010.31 1011.07 1011.67 1012.11 1012.40 1012.58 1012.72 1012.86 1013.05 1013.31 1013.64 1014.01 1014.39 1014.76 1015.07 1015.34 1015.57 1015.77 1015.99 1016.23 1016.50 1016.79 1017.06 1017.27 1017.40 1017.39 1017.23 1016.94 1016.54 1016.07
999.78 1000.43 1001.21 1002.01 1002.74 1003.40 1004.00 1004.59 1005.22 1005.94 1006.76 1007.65 1008.57 1009.46 1010.26 1010.92 1011.42 1011.77 1012.02 1012.20 1012.39 1012.61 1012.89 1013.23 1013.61 1014.00 1014.36 1014.68 1014.95 1015.19 1015.41 1015.63 1015.89 1016.19 1016.51 1016.83 1017.11 1017.30 1017.37 1017.30 1017.09 1016.75 1016.33
998.86 999.50 1000.30 1001.14 1001.93 1002.63 1003.27 1003.87 1004.50 1005.19 1005.98 1006.84 1007.74 1008.63 1009.44 1010.12 1010.66 1011.07 1011.36 1011.60 1011.82 1012.08 1012.38 1012.74 1013.12 1013.51 1013.89 1014.21 1014.50 1014.74 1014.97 1015.20 1015.47 1015.77 1016.10 1016.44 1016.76 1017.01 1017.15 1017.16 1017.04 1016.79 1016.45
998.37 998.97 999.75 1000.59 1001.39 1002.10 1002.74 1003.33 1003.92 1004.58 1005.31 1006.12 1006.98 1007.83 1008.62 1009.31 1009.87 1010.31 1010.64 1010.92 1011.18 1011.46 1011.79 1012.15 1012.55 1012.95 1013.33 1013.67 1013.96 1014.22 1014.45 1014.69 1014.95 1015.25 1015.57 1015.92 1016.25 1016.53 1016.72 1016.81 1016.79 1016.65 1016.41
998.36 998.88 999.61 1000.39 1001.15 1001.82 1002.41 1002.95 1003.50 1004.08 1004.74 1005.48 1006.27 1007.06 1007.82 1008.49 1009.06 1009.52 1009.88 1010.20 1010.49 1010.80 1011.14 1011.51 1011.92 1012.32 1012.71 1013.06 1013.37 1013.63 1013.87 1014.11 1014.37 1014.65 1014.96 1015.29 1015.61 1015.91 1016.15 1016.31 1016.37 1016.34 1016.22
998.77 999.21 999.82 1000.50 1001.15 1001.74 1002.24 1002.70 1003.15 1003.66 1004.23 1004.88 1005.59 1006.32 1007.03 1007.68 1008.24 1008.71 1009.11 1009.45 1009.78 1010.11 1010.47 1010.85 1011.26 1011.67 1012.06 1012.42 1012.73 1013.01 1013.26 1013.50 1013.74 1014.01 1014.30 1014.62 1014.93 1015.24 1015.50 1015.72 1015.87 1015.94 1015.93
999.49 999.81 1000.28 1000.81 1001.31 1001.76 1002.14 1002.48 1002.84 1003.24 1003.72 1004.28 1004.90 1005.57 1006.23 1006.85 1007.41 1007.90 1008.33 1008.71 1009.07 1009.44 1009.82 1010.22 1010.62 1011.03 1011.42 1011.78 1012.09 1012.38 1012.63 1012.87 1013.12 1013.37 1013.65 1013.95 1014.26 1014.57 1014.86 1015.12 1015.34 1015.50 1015.60
1000.34 1000.53 1000.84 1001.18 1001.51 1001.79 1002.02 1002.24 1002.48 1002.78 1003.17 1003.64 1004.19 1004.79 1005.41 1006.01 1006.57 1007.09 1007.55 1007.98 1008.39 1008.80 1009.21 1009.62 1010.03 1010.44 1010.82 1011.16 1011.47 1011.75 1012.01 1012.25 1012.50 1012.75 1013.03 1013.33 1013.64 1013.95 1014.26 1014.56 1014.84 1015.08 1015.28
1001.15 1001.21 1001.35 1001.52 1001.66 1001.77 1001.86 1001.95 1002.08 1002.29 1002.58 1002.97 1003.45 1003.99 1004.56 1005.14 1005.71 1006.25 1006.76 1007.25 1007.72 1008.17 1008.62 1009.06 1009.48 1009.88 1010.24 1010.57 1010.87 1011.13 1011.38 1011.63 1011.88 1012.15 1012.44 1012.74 1013.07 1013.40 1013.74 1014.07 1014.40 1014.70 1014.96
1001.81 1001.76 1001.74 1001.73 1001.71 1001.67 1001.62 1001.61 1001.64 1001.76 1001.97 1002.28 1002.69 1003.16 1003.69 1004.25 1004.82 1005.38 1005.94 1006.49 1007.02 1007.54 1008.04 1008.51 1008.94 1009.33 1009.68 1009.98 1010.25 1010.50 1010.74 1010.98 1011.25 1011.53 1011.85 1012.18 1012.54 1012.90 1013.27 1013.64 1014.00 1014.34 1014.66
1002.24 1002.09 1001.95 1001.80 1001.64 1001.48 1001.34 1001.23 1001.19 1001.23 1001.37 1001.61 1001.94 1002.34 1002.81 1003.33 1003.89 1004.48 1005.07 1005.68 1006.28 1006.86 1007.41 1007.92 1008.36 1008.75 1009.08 1009.35 1009.59 1009.82 1010.04 1010.29 1010.57 1010.89 1011.24 1011.62 1012.02 1012.43 1012.84 1013.25 1013.64 1014.01 1014.36
1002.41 1002.19 1001.95 1001.70 1001.45 1001.21 1001.00 1000.84 1000.74 1000.73 1000.81 1000.97 1001.21 1001.54 1001.94 1002.41 1002.94 1003.52 1004.15 1004.80 1005.46 1006.11 1006.71 1007.26 1007.72 1008.11 1008.42 1008.67 1008.89 1009.09 1009.30 1009.55 1009.85 1010.21 1010.61 1011.05 1011.51 1011.98 1012.44 1012.88 1013.29 1013.68 1014.04
1002.30 1002.02 1001.72 1001.41 1001.11 1000.83 1000.60 1000.41 1000.29 1000.24 1000.26 1000.35 1000.52 1000.76 1001.08 1001.49 1001.98 1002.55 1003.19 1003.87 1004.58 1005.28 1005.93 1006.52 1007.01 1007.40 1007.71 1007.94 1008.13 1008.32 1008.53 1008.79 1009.12 1009.52 1009.98 1010.49 1011.02 1011.55 1012.06 1012.54 1012.98 1013.38 1013.73
1001.88 1001.56 1001.23 1000.90 1000.58 1000.31 1000.08 999.91 999.79 999.72 999.71 999.75 999.84 1000.01 1000.26 1000.60 1001.04 1001.59 1002.22 1002.93 1003.67 1004.41 1005.11 1005.73 1006.25 1006.66 1006.97 1007.20 1007.38 1007.56 1007.78 1008.06 1008.43 1008.88 1009.41 1009.99 1010.59 1011.19 1011.76 1012.27 1012.72 1013.11 1013.45
1001.12 1000.78 1000.43 1000.11 999.81 999.57 999.38 999.24 999.15 999.10 999.08 999.10 999.16 999.28 999.48 999.77 1000.17 1000.70 1001.33 1002.05 1002.81 1003.59 1004.32 1004.98 1005.53 1005.96 1006.29 1006.53 1006.72 1006.91 1007.15 1007.46 1007.87 1008.37 1008.96 1009.61 1010.28 1010.94 1011.55 1012.09 1012.55 1012.93 1013.23
1000.01 999.66 999.32 999.01 998.76 998.57 998.45 998.37 998.34 998.34 998.36 998.40 998.46 998.58 998.76 999.04 999.44 999.96 1000.59 1001.32 1002.10 1002.90 1003.67 1004.36 1004.93 1005.40 1005.75 1006.01 1006.23 1006.45 1006.71 1007.06 1007.51 1008.06 1008.70 1009.40 1010.13 1010.83 1011.47 1012.03 1012.49 1012.84 1013.10
998.58 998.22 997.90 997.64 997.44 997.32 997.27 997.28 997.34 997.43 997.53 997.64 997.77 997.94 998.17 998.48 998.90 999.44 1000.09 1000.83 1001.63 1002.45 1003.24 1003.95 1004.55 1005.04 1005.43 1005.73 1005.98 1006.24 1006.54 1006.92 1007.41 1008.00 1008.67 1009.41 1010.15 1010.87 1011.53 1012.08 1012.52 1012.84 1013.05
996.92 996.57 996.28 996.06 995.93 995.89 995.93 996.05 996.23 996.44 996.66 996.90 997.15 997.42 997.75 998.14 998.63 999.21 999.89 1000.66 1001.47 1002.30 1003.09 1003.82 1004.44 1004.96 1005.38 1005.72 1006.01 1006.31 1006.65 1007.06 1007.57 1008.18 1008.86 1009.59 1010.33 1011.04 1011.67 1012.20 1012.61 1012.89 1013.05
995.17 994.86 994.61 994.45 994.40 994.44 994.59 994.83 995.14 995.49 995.87 996.27 996.68 997.11 997.57 998.08 998.66 999.31 1000.03 1000.82 1001.64 1002.46 1003.25 1003.98 1004.61 1005.15 1005.60 1005.97 1006.31 1006.64 1007.01 1007.44 1007.95 1008.54 1009.20 1009.90 1010.60 1011.26 1011.85 1012.33 1012.69 1012.92 1013.04
993.56 993.31 993.13 993.04 993.07 993.21 993.46 993.82 994.26 994.77 995.32 995.89 996.47 997.07 997.68 998.32 999.00 999.72 1000.49 1001.29 1002.10 1002.91 1003.68 1004.39 1005.02 1005.56 1006.03 1006.43 1006.80 1007.15 1007.54 1007.97 1008.46 1009.01 1009.61 1010.24 1010.86 1011.45 1011.96 1012.38 1012.68 1012.87 1012.95
992.32 992.16 992.07 992.07 992.18 992.41 992.76 993.22 993.79 994.43 995.13 995.85 996.60 997.35 998.10 998.86 999.63 1000.41 1001.20 1001.99 1002.78 1003.55 1004.29 1004.96 1005.57 1006.11 1006.58 1007.00 1007.39 1007.75 1008.14 1008.54 1008.99 1009.48 1010.00 1010.53 1011.05 1011.53 1011.95 1012.29 1012.53 1012.68 1012.74
991.68 991.63 991.64 991.74 991.93 992.23 992.66 993.20 993.85 994.59 995.39 996.23 997.09 997.95 998.81 999.64 1000.46 1001.26 1002.05 1002.82 1003.57 1004.28 1004.96 1005.59 1006.17 1006.69 1007.16 1007.58 1007.97 1008.33 1008.70 1009.07 1009.45 1009.86 1010.28 1010.69 1011.10 1011.47 1011.78 1012.04 1012.23 1012.34 1012.39
Thickness
5822 5822 5820 5818 5814 5809 5805 5802 5798 5795 5791 5786 5782 5779 5776 5776 5775 5775 5773 5772 5770 5768 5766 5764 5762 5761 5759 5758 5756 5754 5752 5750 5750 5746 5744 5747 5749 5750 5751 5751 5750 5749 5748
5818 5820 5819 5817 5814 5810 5807 5803 5800 5797 5793 5790 5787 5783 5780 5778 5777 5775 5774 5772 5770 5768 5766 5764 5762 5761 5759 5757 5755 5754 5750 5748 5748 5744 5738 5735 5738 5744 5749 5749 5748 5748 5747
5820 5820 5820 5818 5815 5811 5809 5807 5802 5799 5795 5792 5788 5784 5780 5777 5774 5773 5772 5772 5771 5769 5767 5765 5763 5761 5759 5756 5755 5753 5750 5746 5746 5746 5740 5732 5729 5735 5741 5745 5746 5746 5745
5826 5823 5821 5819 5817 5815 5812 5809 5804 5800 5797 5793 5788 5782 5777 5773 5773 5773 5773 5772 5770 5769 5767 5765 5763 5760 5758 5756 5755 5754 5751 5748 5744 5744 5744 5742 5739 5732 5731 5737 5742 5743 5743
5829 5826 5825 5822 5820 5818 5813 5810 5805 5801 5798 5794 5789 5784 5779 5777 5775 5774 5771 5769 5769 5768 5766 5764 5762 5759 5758 5756 5754 5753 5751 5749 5746 5743 5742 5740 5738 5736 5730 5728 5733 5737 5739
5831 5829 5828 5824 5820 5817 5813 5810 5804 5801 5798 5794 5790 5785 5781 5777 5774 5771 5769 5768 5766 5765 5765 5763 5761 5759 5757 5755 5754 5752 5750 5748 5746 5744 5742 5739 5735 5733 5731 5727 5727 5729 5734
5829 5827 5824 5821 5818 5815 5812 5809 5804 5800 5797 5794 5791 5787 5783 5779 5775 5772 5769 5767 5764 5763 5762 5762 5759 5757 5756 5755 5753 5751 5748 5747 5745 5743 5741 5739 5737 5736 5733 5728 5725 5726 5729
5830 5828 5827 5824 5820 5817 5813 5809 5804 5800 5797 5793 5790 5788 5784 5780 5777 5774 5771 5768 5766 5764 5762 5760 5758 5756 5755 5754 5751 5749 5747 5745 5743 5742 5740 5738 5737 5735 5733 5729 5724 5720 5721
5830 5828 5826 5824 5821 5817 5814 5810 5805 5801 5798 5794 5790 5787 5783 5780 5777 5774 5771 5768 5766 5764 5761 5759 5757 5755 5753 5751 5749 5746 5745 5743 5741 5739 5738 5736 5735 5734 5733 5730 5727 5720 5715
5828 5826 5824 5821 5818 5816 5813 5810 5806 5801 5798 5793 5790 5787 5783 5780 5776 5773 5769 5766 5763 5761 5759 5757 5754 5752 5750 5749 5747 5744 5742 5740 5738 5737 5735 5734 5733 5732 5730 5728 5727 5724 5719
5825 5824 5821 5820 5816 5813 5810 5806 5803 5798 5794 5791 5788 5785 5781 5778 5775 5771 5768 5765 5762 5759 5756 5754 5752 5749 5747 5746 5744 5742 5740 5737 5736 5735 5733 5731 5730 5728 5727 5726 5724 5722 5719
5822 5821 5818 5815 5811 5808 5805 5802 5799 5795 5792 5789 5785 5782 5778 5775 5771 5768 5766 5763 5759 5756 5754 5751 5749 5747 5744 5742 5740 5738 5737 5735 5732 5731 5730 5728 5728 5725 5723 5722 5720 5719 5717
5815 5814 5812 5810 5807 5804 5802 5799 5796 5793 5790 5786 5781 5777 5774 5770 5767 5765 5762 5759 5756 5753 5751 5748 5745 5743 5741 5739 5737 5735 5734 5732 5730 5728 5726 5725 5723 5721 5719 5718 5716 5715 5715
5807 5806 5805 5803 5802 5800 5797 5795 5792 5790 5786 5782 5777 5772 5769 5767 5764 5761 5758 5755 5753 5749 5747 5744 5742 5739 5738 5736 5734 5732 5730 5728 5727 5725 5723 5721 5719 5717 5715 5714 5712 5711 5708
5797 5798 5797 5797 5796 5794 5792 5790 5788 5786 5782 5777 5772 5769 5766 5763 5759 5756 5753 5751 5748 5745 5742 5739 5737 5735 5733 5732 5730 5728 5726 5723 5721 5720 5719 5717 5717 5715 5713 5711 5708 5706 5703
5790 5792 5792 5792 5790 5789 5787 5784 5782 5780 5777 5772 5768 5765 5761 5757 5753 5750 5748 5744 5741 5739 5736 5734 5732 5730 5729 5728 5726 5724 5721 5718 5716 5714 5713 5712 5711 5709 5708 5707 5705 5703 5699
5785 5785 5786 5785 5785 5784 5783 5779 5777 5775 5771 5767 5763 5759 5755 5751 5749 5746 5742 5739 5736 5733 5730 5728 5726 5724 5723 5722 5721 5719 5716 5713 5711 5708 5706 5706 5705 5702 5700 5699 5698 5697 5696
5778 5777 5777 5778 5778 5777 5776 5774 5771 5767 5763 5759 5756 5753 5750 5746 5743 5739 5736 5733 5730 5727 5724 5721 5719 5717 5716 5715 5714 5712 5710 5707 5705 5703 5701 5699 5697 5697 5694 5691 5690 5689 5689
5772 5772 5772 5772 5771 5770 5768 5765 5762 5759 5755 5752 5749 5747 5744 5740 5736 5732 5729 5727 5723 5720 5717 5714 5712 5710 5710 5709 5708 5705 5702 5699 5697 5696 5695 5693 5691 5690 5687 5684 5682 5682 5682
5766 5766 5765 5764 5762 5762 5760 5755 5752 5749 5746 5745 5743 5741 5738 5733 5729 5726 5723 5720 5717 5713 5710 5707 5705 5703 5702 5702 5700 5697 5694 5690 5689 5687 5687 5686 5683 5682 5679 5677 5675 5673 5674
5757 5758 5756 5754 5753 5752 5749 5744 5742 5740 5740 5737 5734 5732 5729 5725 5722 5718 5715 5712 5708 5704 5701 5699 5696 5695 5694 5693 5692 5689 5685 5682 5680 5678 5677 5676 5675 5673 5672 5670 5669 5668 5667
5746 5747 5744 5743 5742 5741 5738 5735 5732 5733 5732 5729 5725 5722 5720 5717 5714 5709 5706 5702 5698 5694 5691 5688 5686 5685 5685 5684 5682 5680 5678 5676 5672 5670 5669 5668 5667 5665 5664 5663 5663 5662 5660
5735 5735 5734 5732 5731 5730 5729 5726 5725 5724 5722 5719 5716 5713 5709 5706 5703 5699 5695 5691 5687 5684 5681 5678 5675 5674 5673 5672 5672 5671 5669 5667 5664 5663 5662 5661 5659 5657 5656 5656 5655 5653 5651
5723 5723 5722 5720 5719 5719 5719 5717 5716 5715 5713 5709 5706 5703 5699 5696 5692 5689 5686 5682 5678 5674 5671 5668 5666 5664 5663 5662 5661 5660 5659 5657 5655 5653 5652 5651 5650 5648 5647 5646 5645 5644 5643
5711 5712 5710 5709 5709 5709 5708 5708 5707 5705 5702 5699 5696 5693 5690 5685 5682 5679 5676 5674 5671 5669 5665 5662 5659 5656 5653 5653 5653 5651 5649 5647 5645 5643 5642 5640 5638 5637 5636 5635 5635 5634 5633
5699 5700 5700 5699 5698 5697 5697 5696 5696 5695 5692 5687 5685 5682 5678 5675 5671 5668 5664 5664 5662 5660 5658 5656 5652 5650 5648 5646 5644 5642 5641 5639 5637 5634 5631 5629 5627 5626 5625 5625 5624 5624 5624